Retour au catalogue

STARLINK-37318

ActifCommunicationsVLEO
NORAD 68712·PAYLOAD·🇺🇸 United States

Lancé Apr 14, 2026 depuis Cape Canaveral Space Force Station

Loading…

Prochains Passages (prochaines 24 heures)

TLE

FraisSource: CelesTrak SupGP

Époque: Sep 15, 2026, 03:39 UTC

1 68712C 26081P   26258.15256944 -.00048905  00000+0 -14449-2 0  2589
2 68712  53.1584 230.7645 0001555  82.7690  34.7740 15.34415617    10

Suivez STARLINK-37318 en temps réel avec AllMySat

Download on the App Store